Regional Weather Roundup
Issued by NWS

Home | Current Version | Previous Version | Text Only | Print | Product List | Glossary On
Versions: 1 2 3 4 5 6 7 8 9 10 11 12 13 14 15 16 17 18 19 20 21 22 23 24 25 26 27 28 29 30 31 32 33 34 35 36 37 38 39 40 41 42 43 44 45 46 47 48 49 50
000
ASUS43 KFSD 220510
RWRSD

WEATHER ROUNDUP FOR SOUTH DAKOTA
NATIONAL WEATHER SERVICE SIOUX FALLS SD
1200 AM CDT WED OCT 22 2014

NOTE: "FAIR" INDICATES FEW OR NO CLOUDS BELOW 12,000 FEET WITH NO
SIGNIFICANT WEATHER AND/OR OBSTRUCTIONS TO VISIBILITY.


SDZ001>005-009-010-012>017-220600-
NORTHWEST AND NORTH CENTRAL SOUTH DAKOTA

CITY           SKY/WX    TMP DP  RH WIND       PRES   REMARKS
BUFFALO          N/A     62  42  47 NW18      29.66R
FAITH            N/A     62  50  64 SE14      29.70F
MOBRIDGE       CLEAR     64  47  53 SE12      29.71F
$$

SDZ012>016-024>037-041>051-057-063-072>074-220600-
SOUTHWEST AND SOUTH CENTRAL SOUTH DAKOTA

CITY           SKY/WX    TMP DP  RH WIND       PRES   REMARKS
RAPID CTY ARPT PTCLDY    58  43  57 S5        29.77S
PIERRE         PTCLDY    64  47  53 SE15      29.77S
CUSTER         PTCLDY    56  38  50 SW6       29.92R
ELLSWORTH AFB  MOCLDY    62  42  48 SW6       29.77R
PHILIP         PTCLDY    64  50  60 S8        29.74F
PINE RIDGE     CLOUDY    63  48  58 S6        29.83R
SPEARFISH      FAIR      66  39  37 SW13      29.81R
WINNER         FAIR      66  52  60 S21G29    29.83S
$$

SDZ004>011-016>023-039-040-220600-
NORTHEAST SOUTH DAKOTA

CITY           SKY/WX    TMP DP  RH WIND       PRES   REMARKS
ABERDEEN       CLEAR     64  43  46 S22G36    29.85S
WATERTOWN      PTCLDY    56  41  57 S16       29.95F
SISSETON         N/A     53  42  66 S16       29.93F
$$

SDZ017-020-022-023-036>040-048>070-220600-
SOUTHEAST SOUTH DAKOTA

CITY           SKY/WX    TMP DP  RH WIND       PRES   REMARKS
SIOUX FALLS    CLEAR     56  43  61 SE15      30.02S
HURON          CLEAR     62  41  46 S17G33    29.89S
CHAMBERLAIN    CLEAR     62  44  51 SE13G18   29.85S
MITCHELL       CLEAR     62  42  47 SE22G30   29.92F
YANKTON        CLEAR     59  39  47 SE16G22   29.99F
$$

ABBREVIATIONS USED IN REMARKS
   TC - TEMPERATURE IN CELSIUS
  WCI - WIND CHILL INDEX
   HX - HEAT INDEX
  VSB - VISIBILITY




USA.gov is the U.S. government's official web portal to all federal, state and local government web resources and services.